This demonstration page uses our WeatherBlox Daily Observations layout. Learn more.

Left ArrowRight Arrow

39.08367, -84.50855

Hourly Observations for August 25, 2020

Temp ( °F °C ) Dew Point ( °F °C ) Humidity (%) Winds ( mph kmh ) Pressure ( in mb ) Visibility ( mi km ) Precip ( " mm )
12:53 am 00:53 Clear 72 22.2 69 20.6 91 91 N N/A 30.06 1018 8 13 N/A
1:53 am 01:53 Clear 71 21.7 69 20.6 94 94 N N/A 30.06 1018 7 11 N/A
2:53 am 02:53 Clear with Mist and Fog 69 20.6 68 20 96 96 N N/A 30.05 1018 6 10 N/A
3:53 am 03:53 Clear with Mist and Fog 70 21.1 69 20.6 97 97 N N/A 30.05 1018 4 6 N/A
4:28 am 04:28 Clear with Mist and Fog 69 20.6 68 20 96 96 N N/A 30.06 1018 2 3 N/A
4:41 am 04:41 Clear with Mist and Fog 69 20.6 68 20 96 96 SW 3 6 30.05 1018 3 4 N/A
4:51 am 04:51 Clear with Mist and Fog 68 20 68 20 100 100 SW 3 6 30.05 1018 4 6 N/A
4:53 am 04:53 Clear with Mist and Fog 68 20 67 19.4 96 96 SSW 3 6 30.05 1018 3 4 N/A
4:58 am 04:58 Clear with Mist and Fog 68 20 67 19.4 96 96 SSW 3 6 30.06 1018 1 1 N/A
5:12 am 05:12 Clear with Mist and Fog 69 20.6 68 20 96 96 S 3 6 30.05 1018 2 3 N/A
5:19 am 05:19 Clear with Mist and Fog 69 20.6 68 20 96 96 S 3 6 30.06 1018 4 6 N/A
5:53 am 05:53 Clear with Mist and Fog 69 20.6 68 20 96 96 NE 3 6 30.05 1018 4 6 N/A
6:53 am 06:53 Clear 70 21.1 67 19.4 90 90 S 7 11 30.05 1018 9 14 N/A
7:53 am 07:53 Sunny with Mist and Fog 72 22.2 69 20.6 91 91 N N/A 30.08 1019 5 8 N/A
8:53 am 08:53 Sunny 77 25 71 21.7 82 82 S 6 9 30.09 1019 9 14 N/A
9:53 am 09:53 Sunny 81 27.2 70 21.1 69 69 W 8 13 30.08 1019 10 16 N/A
10:53 am 10:53 Mostly Sunny 84 28.9 71 21.7 65 65 W 8 13 30.08 1019 10 16 N/A
11:53 am 11:53 Sunny 87 30.6 72 22.2 61 61 WSW 7 11 30.06 1018 10 16 N/A
12:53 pm 12:53 Mostly Sunny 89 31.7 73 22.8 59 59 WSW 8 13 30.04 1017 10 16 N/A
1:53 pm 13:53 Partly Cloudy 88 31.1 71 21.7 57 57 WSW 5 7 30.03 1017 10 16 N/A
2:53 pm 14:53 Partly Cloudy 91 32.8 72 22.2 54 54 W 13 20 30.02 1017 10 16 N/A
3:53 pm 15:53 Mostly Cloudy 90 32.2 71 21.7 54 54 W 8 13 30.01 1016 10 16 N/A
4:53 pm 16:53 Mostly Sunny 91 32.8 70 21.1 50 50 WNW 12 19 29.99 1016 10 16 N/A
5:20 pm 17:20 Mostly Cloudy with Nearby Thunderstorms 90 32.2 71 21.7 54 54 W 10 17 29.98 1015 10 16 N/A
5:45 pm 17:45 Mostly Cloudy with Thunderstorms 91 32.8 70 21.1 50 50 NW 6 9 29.99 1015 8 13 0.00 0.00
5:53 pm 17:53 Mostly Cloudy with Thunderstorms 84 28.9 70 21.1 63 63 NE 14 22 30.02 1017 8 13 0.00 0.00
6:06 pm 18:06 Mostly Cloudy with Thunderstorms 74 23.3 67 19.4 79 79 ENE 10 17 30.03 1017 3 4 0.10 2.54
6:13 pm 18:13 Mostly Cloudy with Thunderstorms 73 22.8 69 20.6 87 87 S 7 11 30.01 1016 5 8 0.21 5.33
6:53 pm 18:53 Mostly Cloudy 75 23.9 72 22.2 90 90 S 5 7 30.02 1017 9 14 0.21 5.33
7:53 pm 19:53 Sunny 75 23.9 73 22.8 94 94 N N/A 30.03 1017 7 11 N/A
8:53 pm 20:53 Partly Cloudy with Mist and Fog 75 23.9 73 22.8 94 94 N N/A 30.04 1017 4 6 N/A
9:48 pm 21:48 Mostly Clear with Mist and Fog 73 23 72 22 94 94 N N/A 30.05 1018 2 2 N/A
9:53 pm 21:53 Partly Cloudy with Mist and Fog 73 22.8 72 22.2 96 96 N N/A 30.06 1018 4 6 N/A
10:53 pm 22:53 Mostly Clear with Mist and Fog 73 22.8 71 21.7 94 94 SSW 5 7 30.07 1018 3 5 N/A
11:00 pm 23:00 Clear with Mist and Fog 72 22.2 71 21.7 97 97 SSW 5 7 30.06 1018 2 3 N/A
11:13 pm 23:13 Clear with Mist and Fog 71 21.7 70 21.1 96 96 N N/A 30.08 1018 3 5 N/A
11:53 pm 23:53 Clear with Mist and Fog 72 22.2 70 21.1 94 94 N N/A 30.07 1018 5 8 N/A

Powered by AerisWeather